Flag for U.S.A. Weather past 2 weeks in Wichita Falls, Texas, U.S.A.

Now
81 °F

Clear.


Feels Like: 84 °F
Forecast: 78 / 98 °F
Wind: 12 mph from South

Location: Wichita Falls - Sheppard Air Force Base

Current Time: Sep 2, 2014 at 6:39:13 AM

Latest Report: Sep 2, 2014 at 5:52 AM


Visibility: 10 mi

Pressure: 29.79 "Hg

Humidity: 67%

Dew point: 69 °F

Location of Wichita FallsLocation

Historic Weather in Wichita Falls — Graph

°F

Wichita Falls temperature yesterday

Maximum temperature yesterday: 101 °F (at 4:52 PM)
Minimum temperature yesterday: 78 °F (at 6:52 AM)
Average temperature yesterday: 89 °F

Past Weeks' High & Low Weather Summary

 TemperatureHumidityPressure
High104 °F (Aug 22, 3:52 PM)93% (Aug 28, 10:52 PM)30.03 "Hg (Aug 28, 10:52 PM)
Low68 °F (Aug 28, 10:52 PM)16% (Aug 22, 5:52 PM)29.70 "Hg (Sep 1, 5:52 PM)
Average86 °F52%29.86 "Hg
* Reported Aug 18 4:52 AM — Sep 2 4:52 AM, Wichita Falls, Weather by CustomWeather, © 2014

Note: Actual official high and low records may vary slightly from our data, if they occured in-between our weather recording intervals... More about our weather records

Advertising

Wichita Falls weather history for previous 24 hours

 ConditionsComfort  
Time TempWeatherWind HumidityBarometerVisibility
4:52 AM
Sep 2
82 °FClear.12 mph65%29.79 "Hg10 mi
3:52 AM83 °FClear.16 mph63%29.77 "Hg10 mi
2:52 AM84 °FClear.18 mph59%29.76 "Hg10 mi
1:52 AM84 °FClear.17 mph57%29.76 "Hg10 mi
12:52 AM85 °FClear.18 mph53%29.77 "Hg10 mi
11:52 PM
Sep 1
87 °FClear.21 mph50%29.77 "Hg10 mi
10:52 PM87 °FClear.20 mph50%29.75 "Hg10 mi
9:52 PM89 °FClear.17 mph46%29.75 "Hg10 mi
8:52 PM91 °FSunny.17 mph44%29.74 "Hg10 mi
7:52 PM93 °FSunny.18 mph41%29.72 "Hg10 mi
6:52 PM96 °FSunny.24 mph37%29.71 "Hg10 mi
5:52 PM100 °FSunny.20 mph29%29.70 "Hg10 mi
4:52 PM101 °FSunny.23 mph30%29.71 "Hg10 mi
3:52 PM100 °FSunny.17 mph32%29.73 "Hg10 mi
2:52 PM99 °FSunny.18 mph35%29.75 "Hg10 mi
1:52 PM97 °FSunny.17 mph39%29.77 "Hg10 mi
12:52 PM94 °FSunny.14 mph44%29.79 "Hg10 mi
11:52 AM91 °FSunny.20 mph50%29.81 "Hg10 mi
10:52 AM88 °FSunny.23 mph55%29.80 "Hg10 mi
9:52 AM85 °FSunny.23 mph61%29.80 "Hg10 mi
8:52 AM81 °FSunny.20 mph69%29.79 "Hg10 mi
7:52 AM79 °FClear.14 mph74%29.79 "Hg10 mi
6:52 AM78 °FClear.16 mph76%29.78 "Hg10 mi
Weather by CustomWeather, © 2014

See weather overviewHow to use our weather pages